Location: Newark
(7.0858°N, 171.3717°E)
Time: 04:49:51
(UTC+00:00)

Vanguard 2 - Pass Details

Date: 03 December 2020
Orbit: 553 x 2937 km, 32.9° (Epoch: 26 January)

Event Time Altitude Azimuth Distance (km) Brightness Sun altitude
Rises 19:09:31 0° 253° (WSW) 6,274 11.7 7.6°
Reaches altitude 10° 19:14:33 10° 260° (W) 4,935 11.2 8.7°
Maximum altitude 19:26:26 40° 324° (NW) 2,295 9.7 11.4°
Drops below altitude 10° 19:33:57 10° 32° (NNE) 3,121 10.8 13.1°
Sets 19:36:25 0° 40° (NE) 3,817 11.3 13.7°
